Вернуться в каталог

STARLINK-37851

АктивенСвязьSSO
NORAD 69658·PAYLOAD·🇺🇸 United States

Запущен Jun 21, 2026 с Vandenberg Space Force Base

Loading…

Ближайшие Пролёты (ближайшие 24 часа)

TLE

СвежийSource: CelesTrak SupGP

Эпоха: Sep 15, 2026, 03:12 UTC

1 69658C 26143K   26258.13381944 -.00009883  00000+0 -30677-3 0  2589
2 69658  97.2840 301.4336 0000866  90.3489 221.2734 15.33448218    10

Отслеживайте STARLINK-37851 в реальном времени с AllMySat

Download on the App Store